Regional Weather Roundup
Issued by NWS Midland/Odessa, TX

Skip options and go directly to product.
Home | Oldest Version | Previous Version | Current Version | All | Text Only | Save Text | Print | Product List | Glossary On

Skip product version selection by date and time.   
320
ASUS44 KMAF 031710
RWRMAF
MIDLAND AREA WEATHER ROUNDUP
NATIONAL WEATHER SERVICE MIDLAND TX
1200 PM CDT MON AUG 03 2015

...IN SOUTHWEST TEXAS AND SOUTHEAST NEW MEXICO...

CITY           SKY/WX    TMP DP  RH WIND       PRES   REMARKS
ALPINE         MOSUNNY   87  57  36 NW3       30.16R
ANDREWS        FAIR      89  60  37 S13G20    30.02S
ARTESIA        PTSUNNY   86  63  45 CALM      30.04S
BIG SPRING     PTSUNNY   78  63  60 SE9       30.02F
CARLSBAD       PTSUNNY   87  63  44 W8        30.01S
DRYDEN           N/A     93  63  36 VRB3      29.96F
FORT STOCKTON  MOSUNNY   92  59  33 E6        30.00F
GUAD PASS      MOSUNNY   80  62  54 W6        30.19R
HOBBS          SUNNY     84  61  45 SE16      30.05S
MARFA          MOSUNNY   84  57  39 CALM      30.15S
MIDLAND AIRPK  PTSUNNY   84  61  45 S10       30.00S
MIDLAND INTL   PTSUNNY   86  65  49 S17       30.00F
ODESSA         PTSUNNY   87  62  43 S16       30.01S
PECOS          MOSUNNY   89  59  35 NE3       29.97F
PRESIDIO       FAIR      92  56  29 SE3       29.99S
SEMINOLE       MOSUNNY   89  57  34 S13       30.03S
SNYDER         CLOUDY    84  62  47 S9        30.01S
WINK           SUNNY     88  60  38 S10       29.98S
$$
...OTHER STATIONS IN TEXAS...

CITY           SKY/WX    TMP DP  RH WIND       PRES   REMARKS
ABILENE        MOSUNNY   91  61  36 S12G17    29.98S
AMARILLO       SUNNY     78  67  68 SE17      30.05F
AUSTIN         MOSUNNY   91  63  39 CALM      29.93S
BROWNSVILLE    SUNNY     92  72  51 S16       29.90S
CORPUS CHRISTI PTSUNNY   87  74  64 SE13      29.91R
DALLAS FTW     PTSUNNY   93  60  33 S8        29.94R
DEL RIO        SUNNY     93  61  34 SE12      29.92S
EL PASO        PTSUNNY   85  58  39 CALM      30.07R
HOUSTON INT    MOSUNNY   93  69  45 S7        29.93S
LUBBOCK        MOSUNNY   85  63  47 SE8       30.03S
SAN ANGELO     SUNNY     93  61  34 MISG      29.97F
SAN ANTONIO    MOSUNNY   91  64  40 CALM      29.94F
WACO           SUNNY     93  62  35 S8        29.94S
WICHITA FALLS  NOT AVBL
$$
...OTHER LOCATIONS IN NEW MEXICO...

CITY           SKY/WX    TMP DP  RH WIND       PRES   REMARKS
ALAMAGORDO     MOSUNNY   82  59  44 S3        30.10S
ALBUQUERQUE    MOSUNNY   75  57  53 SW5       30.20S
CANNON AFB     MOSUNNY   79  64  60 S7        30.08R
CLOVIS         PTSUNNY   81  63  54 S7        30.09S
HOLLOMAN AFB   PTSUNNY   86  59  39 SW5       30.07S
ROSWELL        PTSUNNY   86  63  45 N5        30.04R
RUIDOSO          N/A    N/A N/A N/A MISG        N/A
SANTA FE       MOSUNNY   71  55  56 CALM      30.23S
TRUTH OR CONSE MOSUNNY   82  59  45 E6        30.14S
TUCUMCARI      MOSUNNY   77  64  64 VRB5      30.05S
$$

USA.gov is the U.S. government's official web portal to all federal, state and local government web resources and services.